Hourly Data Report for October 27, 2015

All times are specified in Local Standard Time (LST). Add 1 hour to adjust for Daylight Saving Time where and when it is observed.

RESOLUTE BAY A
NUNAVUT

74°43'01.000" N
94°58'10.000" W
67.70 m
2403498
71924
YRB

Download Data

Hourly Data (October 2015)
Hourly Data Report for October 27, 2015
Temp Definition
°C
Dew Point Temp Definition
°C
Rel Hum Definition
%
Wind Dir Definition
10's deg

Wind Spd Definition
km/h
Visibility Definition
km
Stn Press Definition
kPa
Hmdx Definition


Wind Chill Definition


Weather Definition


TIME
00:00 Legend Double Dagger -19.1 -21.6 81 36 45 24.1 99.93   -34 Blowing Snow
01:00 Legend Double Dagger -19.5 -22.0 81 36 37 24.1 99.97   -33 Blowing Snow
02:00 Legend Double Dagger -19.3 -21.9 80 36 30 24.1 100.01   -32 Blowing Snow
03:00 Legend Double Dagger -20.1 -22.9 79 33 26 24.1 100.04   -32 Blowing Snow
04:00 Legend Double Dagger -18.5 -21.0 81 3 43 24.1 100.01   -33 Blowing Snow
05:00 Legend Double Dagger -17.3 -20.4 77 32 11 24.1 100.13   -24 LegendNANA
06:00 Legend Double Dagger -18.9 -21.7 79 1 27 24.1 100.11   -31 Clear
07:00 Legend Double Dagger -18.2 -20.7 81 2 48 24.1 100.06   -33 Blowing Snow
08:00 Legend Double Dagger -18.8 -21.3 81 34 22 24.1 100.09   -29 LegendNANA
09:00 Legend Double Dagger -20.8 -23.5 79 35 28 24.1 100.14   -33 Mainly Clear
10:00 Legend Double Dagger -19.5 -22.0 81 33 26 24.1 100.18   -31 LegendNANA
11:00 Legend Double Dagger -20.6 -23.2 80 30 26 24.1 100.21   -33 LegendNANA
12:00 Legend Double Dagger -20.4 -23.2 79 33 32 24.1 100.20   -33 Clear
13:00 Legend Double Dagger -18.0 -20.4 82 36 39 24.1 100.21   -31 LegendNANA
14:00 Legend Double Dagger -20.2 -23.1 78 28 10 24.1 100.25   -27 LegendNANA
15:00 Legend Double Dagger -19.3 -21.8 81 36 2 24.1 100.32   -21 Mostly Cloudy
16:00 Legend Double Dagger -19.6 -22.2 80 32 28 24.1 100.32   -32 LegendNANA
17:00 Legend Double Dagger -18.5 -21.2 80 35 25 24.1 100.31   -30 LegendNANA
18:00 Legend Double Dagger -19.3 -21.9 80 36 23 24.1 100.32   -30 Mainly Clear
19:00 Legend Double Dagger -18.8 -21.3 81 36 22 24.1 100.34   -29 LegendNANA
20:00 Legend Double Dagger -19.8 -22.3 81 36 16 24.1 100.39   -29 LegendNANA
21:00 Legend Double Dagger -19.4 -21.7 82 34 22 24.1 100.39   -30 Ice Crystals
22:00 Legend Double Dagger -19.8 -22.1 82 35 32 24.1 100.37   -33 Ice Crystals
23:00 Legend Double Dagger -19.6 -21.8 83 34 36 12.9 100.37   -33 Ice Crystals,Blowing Snow

Notes on Data Quality.

Legend

  • E = Estimated
  • M = Missing
  • NA = Not Available
  • ‡ = Partner data that is not subject to review by the National Climate Archives
Date modified: